Location: Los Gatos B&B
(42.6926°N, 77.0646°W)
Time: 05:25:53
(UTC-04:00)

SL-16 R/B - Visible Passes

Search period start: 31 July 2014 00:00
Search period end: 10 August 2014 00:00
Orbit: 841 x 850 km, 71.0° (Epoch: 30 July)

Date Brightness Start Highest point End Pass type
(mag) Time Alt. Az. Time Alt. Az. Time Alt. Az.
31 Jul 4.1 00:59:59 10° WNW 01:03:14 18° W 01:03:14 18° W visible
31 Jul 4.3 21:18:38 10° NNE 21:20:54 12° NE 21:23:09 10° ENE visible
31 Jul 2.3 23:00:33 10° NNW 23:06:13 64° ENE 23:07:40 47° ESE visible
01 Aug 4.0 00:45:57 10° WNW 00:49:32 19° W 00:49:32 19° W visible
01 Aug 4.3 21:04:48 10° NNE 21:06:55 12° NE 21:09:01 10° ENE visible
01 Aug 2.3 22:46:36 10° NNW 22:52:15 62° ENE 22:54:00 42° ESE visible
02 Aug 4.0 00:31:55 10° NW 00:35:50 19° W 00:35:53 19° W visible
02 Aug 2.4 22:32:40 10° NNW 22:38:18 60° ENE 22:40:23 38° SE visible
03 Aug 3.9 00:17:54 10° NW 00:21:54 20° W 00:22:16 20° WSW visible
03 Aug 2.4 22:18:43 10° NNW 22:24:21 58° ENE 22:26:47 33° SE visible
04 Aug 3.9 00:03:53 10° NW 00:07:58 21° W 00:08:41 20° WSW visible
04 Aug 2.4 22:04:47 10° NNW 22:10:23 57° ENE 22:13:15 28° SE visible
04 Aug 3.9 23:49:52 10° NW 23:54:02 21° W 23:55:08 20° WSW visible
05 Aug 2.5 21:50:50 10° NNW 21:56:26 55° ENE 21:59:44 24° SE visible
05 Aug 3.9 23:35:52 10° NW 23:40:07 22° W 23:41:38 20° WSW visible
06 Aug 2.5 21:36:54 10° NNW 21:42:29 53° ENE 21:46:16 20° SE visible
06 Aug 3.9 23:21:51 10° NW 23:26:11 23° W 23:28:10 19° SW visible
07 Aug 2.5 21:22:58 10° NNW 21:28:31 52° ENE 21:32:51 17° SE visible
07 Aug 4.0 23:07:51 10° NW 23:12:15 24° W 23:14:45 18° SW visible
08 Aug 2.6 21:09:01 10° NNW 21:14:34 50° ENE 21:19:29 13° SE visible
08 Aug 4.0 22:53:51 10° NW 22:58:19 24° WSW 23:01:23 16° SW visible
09 Aug 2.6 20:55:05 10° NNW 21:00:36 49° ENE 21:06:05 10° SE visible
09 Aug 3.9 22:39:51 10° NW 22:44:24 25° WSW 22:48:05 14° SSW visible
